sat.trackr.live / text

‹ back to catalog

STARLINK-31423

NORAD 59242 · 2024-049M

PAYLOAD ACTIVE UNKNOWN

§ Identity

Operator
Country
US
Launch date
2024-03-16
Launch site
AFETR
Launch vehicle
Mass (kg)
RCS (m²)

Purposes: comms

External: N2YO · Heavens-Above · Gunter

§ Orbital elements

Epoch: 2026-09-20T08:21:49.547232Z

Period
94.27 min
Inclination
43.0029°
Eccentricity
0.0001483
Mean motion
15.27578987 rev/d
Perigee alt
482.0 km
Apogee alt
484.1 km
Semi-major
6,861.2 km
B*
7.6420e-5
RAAN
124.4591°
Arg perigee
275.3960°
Mean anomaly
84.6723°
Rev number
14,217

§ Raw data

STARLINK-314231 59242U 24049M   26263.34849013  .00001841  00000+0  76420-4 0  99982 59242  43.0029 124.4591 0001483 275.3960  84.6723 15.27578987142170

JSON: /api/v1/satellites/59242 · /tle

For live sub-satellite position, see the globe view (requires WebGL).

§ Visibility from observer

Set your observer location to see the next 7 days of passes ≥ 10°. The values pass through the URL so the page stays shareable.

No JS? Fill the form by hand. The geolocation button needs JavaScript.